Wind_Speed
68 68 68 69 69 70 70 71 72 73 74 74 74 75 75 75 76 76 75 73 72 71 71 71 71 71 71 72 73 74 75 76 76 76 75 75 76 77 78 79 80 81
68 69 70 71 72 73 73 74 74 75 76 77 77 78 78 78 79 78 78 76 75 75 75 74 74 74 74 74 75 76 78 78 79 80 79 78 78 79 80 81 82 83
70 71 73 74 75 75 76 76 77 78 79 79 80 80 81 81 81 81 80 79 79 78 78 77 77 76 76 76 77 78 80 81 81 82 82 81 82 82 83 84 84 85
73 74 75 76 77 78 78 79 79 80 81 82 83 83 83 83 84 83 83 82 82 81 81 81 80 79 79 78 79 80 82 83 84 84 84 84 85 86 86 87 87 87
76 77 77 78 79 79 80 81 82 82 82 84 85 85 85 85 86 86 86 85 85 85 84 85 85 84 83 82 82 83 84 86 87 87 86 86 87 88 89 90 90 89
80 80 81 81 81 81 82 83 84 84 85 85 86 86 87 87 87 88 88 88 88 87 88 88 88 88 87 86 86 86 87 88 90 90 90 90 90 90 91 92 92 92
84 84 84 84 83 84 84 85 86 87 87 88 88 88 88 88 89 90 90 90 90 90 90 91 91 91 90 90 90 90 90 91 93 94 93 93 93 94 94 95 95 95
87 86 86 86 86 86 87 88 88 89 90 89 89 89 89 90 90 92 92 92 92 93 93 94 94 94 94 93 92 93 93 94 95 95 96 96 96 97 97 97 97 98
88 88 89 89 89 90 90 91 91 91 91 91 90 91 91 91 92 93 94 95 95 96 96 97 97 97 97 96 96 95 95 96 96 97 97 98 98 99 99 100 100 99
91 92 93 93 94 94 94 94 94 93 93 93 93 93 93 94 94 95 95 96 97 98 98 99 99 99 100 100 99 99 98 98 98 98 99 99 99 100 101 102 101 99
95 96 97 97 97 97 97 96 96 96 95 95 96 96 96 96 97 97 98 98 99 100 100 101 101 101 102 102 102 101 100 100 100 100 100 100 100 101 102 101 99 97
97 98 99 99 99 99 99 98 98 98 98 98 99 99 99 99 99 100 100 101 101 102 103 103 103 103 103 104 104 103 103 103 102 101 101 101 102 102 101 100 98 96
99 100 100 100 100 100 100 100 100 100 100 100 101 101 101 101 102 103 103 103 104 104 105 105 105 105 105 105 105 105 105 104 103 102 102 103 103 102 100 98 96 94
101 101 101 101 101 101 101 102 102 102 102 102 103 103 104 104 105 105 105 105 105 106 106 106 106 106 106 107 107 107 106 105 105 105 104 103 102 100 98 96 94 92
103 103 103 103 103 104 104 105 105 105 105 105 106 106 107 107 107 107 107 107 108 108 107 107 107 107 108 108 108 108 107 107 106 106 104 102 100 98 96 94 92 89
106 107 107 107 108 108 108 108 109 109 109 109 109 109 110 110 110 110 109 110 110 109 109 109 108 109 109 109 109 109 109 108 106 104 102 101 99 97 94 92 89 87
109 110 110 110 111 111 112 112 112 112 112 112 113 113 113 113 112 112 112 112 111 111 111 110 110 110 110 110 110 110 109 107 104 102 101 99 97 95 92 90 88 87
112 112 112 113 113 114 114 114 115 115 115 115 115 116 115 115 114 114 114 114 113 112 112 111 111 111 111 110 109 108 107 105 103 101 99 97 94 92 90 89 89 89
114 114 114 114 115 116 116 116 116 116 116 116 117 117 116 116 116 115 115 114 113 113 112 111 111 110 110 109 108 106 105 103 100 98 96 94 93 92 92 92 92 92
115 115 115 115 115 116 116 116 116 116 117 117 117 117 117 116 116 115 115 114 113 113 111 110 109 109 108 107 106 104 103 101 99 97 96 95 95 95 95 95 96 96
115 115 115 115 115 115 115 115 116 116 116 117 117 116 116 115 115 114 114 113 112 111 110 108 108 107 106 105 103 102 101 100 98 97 97 97 97 98 99 99 100 101
115 114 114 114 114 114 114 114 115 115 114 115 114 114 114 113 113 113 112 111 111 110 108 107 106 105 104 102 101 101 100 99 99 99 99 100 100 101 102 103 103 104
115 114 113 113 113 112 112 112 112 112 111 112 111 111 111 111 111 110 110 109 108 108 106 105 104 103 102 101 100 100 100 100 100 101 102 103 104 105 105 106 106 107
114 113 112 111 111 110 110 110 110 109 109 109 109 109 108 108 108 108 107 106 105 105 104 103 102 102 101 101 101 101 102 103 104 105 106 107 107 108 108 108 109 110
112 111 110 110 109 108 108 107 107 107 107 106 106 106 105 105 104 104 103 103 103 102 102 102 102 102 102 103 104 106 107 109 110 110 111 112 112 111 111 111 112 112
108 107 107 106 106 105 104 104 104 103 103 103 103 103 102 102 102 102 102 102 103 104 104 105 105 106 106 108 110 112 113 114 115 115 116 117 116 116 115 115 115 116
Wind_Direction
299 300 300 300 299 299 299 299 299 299 299 300 300 300 300 299 300 301 302 303 303 303 303 302 302 302 303 303 303 302 302 301 301 300 301 302 302 302 301 301 301 301
296 297 298 297 297 297 297 298 298 297 298 298 298 299 299 299 300 301 302 302 303 302 302 302 302 302 302 302 301 301 301 301 301 301 301 301 301 301 300 300 300 301
294 295 295 295 295 295 296 296 296 296 297 297 298 298 299 299 299 300 301 301 301 301 301 301 301 300 300 300 300 300 300 300 300 300 301 302 301 301 301 301 301 301
291 292 292 293 293 294 294 295 295 295 296 296 296 297 298 298 298 299 299 300 300 300 301 300 300 299 299 299 299 299 299 299 300 301 301 302 302 301 301 301 302 301
289 290 291 291 292 292 293 293 293 294 294 294 295 296 297 297 297 298 298 298 299 300 300 299 299 299 300 300 300 300 300 300 300 301 302 302 301 301 301 301 301 301
289 290 290 291 292 292 292 292 292 293 293 294 295 296 296 296 297 297 297 297 298 298 298 299 299 300 300 300 301 301 301 301 301 301 302 301 301 301 301 301 301 301
290 291 291 292 292 292 292 292 292 292 293 294 295 295 295 295 295 295 296 296 297 297 297 298 299 299 300 300 301 301 301 301 301 301 301 301 300 301 301 301 301 302
291 291 291 291 291 291 291 291 291 292 293 294 294 294 294 295 295 295 295 296 296 296 297 298 298 299 300 300 300 300 300 300 300 300 300 300 300 300 300 301 302 302
289 289 290 290 290 290 290 290 291 291 292 293 293 293 294 294 294 294 295 295 296 296 297 298 298 299 299 299 299 299 298 298 298 298 299 299 299 300 300 301 302 302
288 288 289 290 290 290 291 291 291 292 292 292 293 293 293 293 294 294 294 295 295 296 296 297 297 297 297 297 297 297 297 297 297 297 298 298 299 299 300 301 302 302
288 288 289 290 291 291 292 292 292 292 292 293 293 293 293 294 294 294 294 294 294 294 295 295 295 295 295 295 295 296 296 296 297 297 298 298 299 299 300 300 301 300
288 289 290 290 291 291 292 292 292 292 292 292 292 293 293 293 292 292 292 293 293 293 293 293 293 294 294 294 295 295 296 297 297 298 298 298 299 299 300 300 300 299
288 289 289 290 290 290 291 291 291 291 291 290 290 290 290 290 290 290 291 291 291 292 292 292 293 294 294 294 295 296 296 297 298 298 298 298 299 299 299 299 299 298
287 287 287 287 288 288 288 288 288 288 288 288 288 288 288 289 289 290 290 291 291 291 292 292 293 293 294 294 295 296 296 297 297 297 298 298 298 298 298 298 297 296
285 285 286 286 286 286 286 286 286 286 287 287 287 287 288 288 289 289 290 290 291 291 292 292 293 293 294 294 295 295 296 296 296 297 297 297 297 297 297 296 295 294
285 285 286 286 286 286 286 287 287 287 287 287 287 287 288 288 289 290 290 290 291 291 292 292 293 293 293 294 294 295 295 296 296 297 297 297 297 296 295 294 293 292
284 285 285 285 286 286 286 286 287 287 287 287 287 288 288 289 289 290 290 291 291 292 292 292 293 293 293 294 294 295 295 296 296 296 296 296 296 295 293 292 291 289
283 283 284 284 284 285 285 285 286 286 287 287 287 288 288 289 290 290 290 291 291 291 292 292 293 293 293 294 294 294 295 295 295 295 295 295 294 292 291 290 289 288
282 282 283 283 283 284 284 285 285 285 286 286 287 287 288 288 289 289 289 290 290 291 291 291 292 292 293 293 293 294 294 294 294 294 293 293 291 290 289 288 288 288
281 282 282 282 282 283 283 283 284 284 284 285 285 286 286 287 287 288 288 288 289 289 290 290 291 291 291 291 292 292 292 293 293 292 292 291 290 289 289 288 288 289
281 281 281 281 281 281 281 282 282 283 283 284 284 284 285 285 286 286 287 287 287 288 288 289 289 289 289 290 290 290 291 291 291 291 290 289 289 289 289 288 289 289
279 279 279 279 280 280 280 281 281 282 282 283 283 284 284 284 285 285 286 286 286 287 287 287 288 288 288 288 289 289 289 289 289 289 288 288 288 287 287 288 288 288
279 279 279 279 279 279 279 280 280 281 281 282 282 282 283 283 284 284 285 285 286 286 287 287 287 287 287 287 287 287 287 287 287 287 286 286 286 286 286 287 287 287
279 279 279 279 279 279 279 280 280 280 281 281 281 282 282 282 283 284 284 285 285 285 286 286 286 286 286 286 286 286 286 286 286 286 286 286 286 286 286 287 287 287
279 279 279 279 279 279 279 279 280 280 280 280 281 281 281 282 282 283 283 284 284 284 284 284 284 284 284 284 285 285 285 286 286 287 287 287 287 287 287 288 288 288
279 279 279 279 279 279 279 279 279 280 280 280 281 281 281 281 281 282 282 282 282 282 282 282 282 282 282 283 284 284 285 285 286 286 287 287 287 288 288 288 288 288
Height
10723 10722 10720 10718 10716 10714 10712 10709 10706 10703 10700 10698 10695 10693 10690 10688 10685 10684 10683 10681 10680 10678 10675 10672 10670 10667 10664 10661 10657 10653 10650 10646 10643 10640 10637 10636 10632 10627 10624 10620 10616 10613
10718 10716 10713 10710 10708 10706 10704 10702 10699 10695 10692 10689 10687 10684 10682 10679 10677 10675 10673 10672 10671 10669 10667 10664 10662 10659 10657 10654 10649 10646 10642 10638 10634 10630 10629 10628 10625 10621 10617 10612 10609 10605
10711 10709 10706 10703 10700 10698 10696 10693 10690 10687 10684 10681 10678 10676 10674 10671 10668 10666 10664 10663 10661 10659 10657 10655 10653 10651 10649 10646 10643 10638 10634 10630 10627 10623 10620 10618 10614 10611 10607 10603 10600 10597
10703 10701 10698 10695 10693 10690 10688 10685 10682 10679 10676 10673 10670 10668 10666 10662 10659 10657 10655 10653 10652 10650 10647 10645 10643 10641 10640 10637 10635 10631 10626 10621 10618 10614 10613 10609 10604 10600 10596 10592 10590 10587
10695 10693 10690 10688 10686 10683 10680 10677 10674 10671 10669 10665 10662 10660 10657 10654 10651 10648 10645 10643 10642 10640 10637 10634 10631 10630 10629 10627 10624 10621 10616 10611 10607 10604 10603 10600 10595 10591 10587 10583 10580 10576
10685 10684 10682 10680 10678 10675 10672 10668 10665 10663 10660 10657 10655 10652 10649 10646 10642 10639 10636 10634 10632 10630 10627 10624 10621 10618 10617 10615 10613 10610 10605 10600 10595 10592 10591 10588 10584 10581 10577 10573 10570 10566
10675 10674 10672 10670 10668 10666 10662 10658 10655 10652 10650 10649 10647 10643 10640 10638 10634 10630 10627 10625 10622 10620 10617 10613 10611 10608 10606 10604 10602 10599 10595 10590 10585 10581 10579 10576 10572 10570 10565 10561 10558 10555
10664 10662 10660 10659 10658 10655 10653 10649 10646 10643 10641 10640 10638 10634 10631 10628 10624 10620 10618 10615 10612 10609 10606 10603 10600 10597 10595 10593 10591 10589 10585 10581 10577 10573 10569 10565 10561 10558 10553 10549 10547 10543
10654 10651 10649 10648 10647 10645 10643 10640 10637 10635 10633 10632 10629 10625 10622 10619 10615 10611 10607 10604 10601 10598 10595 10592 10589 10586 10583 10582 10580 10579 10576 10573 10568 10565 10561 10556 10552 10547 10543 10539 10536 10532
10643 10639 10638 10637 10635 10634 10632 10629 10627 10625 10622 10620 10618 10615 10612 10609 10605 10602 10598 10594 10590 10586 10584 10582 10578 10575 10573 10570 10568 10567 10566 10563 10559 10556 10553 10548 10543 10538 10533 10529 10525 10522
10632 10629 10626 10625 10623 10621 10619 10617 10614 10612 10610 10607 10605 10602 10600 10597 10594 10590 10587 10584 10580 10577 10574 10572 10569 10566 10563 10559 10556 10555 10554 10552 10549 10546 10542 10538 10533 10528 10523 10519 10515 10511
10621 10618 10615 10613 10610 10608 10606 10604 10602 10599 10597 10595 10592 10590 10589 10586 10582 10579 10577 10575 10572 10568 10564 10561 10558 10555 10552 10547 10544 10542 10541 10539 10536 10534 10530 10526 10522 10517 10512 10508 10504 10500
10609 10606 10604 10602 10600 10598 10596 10594 10591 10589 10587 10584 10582 10580 10578 10575 10572 10570 10568 10566 10562 10558 10554 10550 10547 10544 10540 10535 10532 10530 10528 10526 10524 10521 10518 10514 10510 10505 10501 10497 10493 10489
10598 10596 10595 10593 10592 10590 10587 10585 10582 10580 10578 10575 10572 10570 10567 10564 10562 10560 10558 10555 10551 10547 10543 10540 10537 10533 10528 10523 10520 10518 10516 10514 10511 10508 10505 10502 10498 10494 10490 10486 10483 10479
10588 10586 10584 10583 10582 10580 10577 10574 10571 10569 10567 10565 10561 10558 10555 10552 10550 10548 10546 10542 10538 10534 10531 10528 10525 10521 10516 10511 10508 10505 10503 10502 10499 10496 10493 10490 10486 10483 10479 10475 10472 10469
10576 10574 10572 10570 10568 10565 10563 10560 10558 10556 10554 10552 10548 10545 10542 10540 10538 10536 10533 10529 10525 10522 10518 10515 10512 10508 10503 10499 10496 10492 10490 10488 10486 10483 10480 10477 10474 10471 10468 10464 10461 10459
10567 10565 10562 10559 10555 10552 10550 10547 10545 10543 10540 10537 10534 10532 10529 10527 10525 10523 10519 10515 10512 10509 10506 10502 10498 10494 10490 10486 10483 10480 10477 10475 10473 10471 10468 10464 10462 10459 10456 10453 10450 10448
10558 10557 10554 10550 10546 10543 10540 10537 10534 10532 10528 10524 10521 10518 10516 10514 10512 10508 10505 10502 10499 10496 10493 10490 10486 10481 10477 10473 10470 10467 10464 10463 10461 10458 10456 10453 10449 10446 10444 10442 10439 10436
10548 10546 10544 10540 10535 10532 10529 10527 10524 10520 10516 10513 10510 10507 10504 10502 10499 10495 10493 10489 10486 10484 10481 10478 10474 10469 10464 10461 10458 10455 10452 10451 10449 10446 10444 10441 10437 10434 10432 10430 10427 10424
10536 10535 10532 10528 10524 10520 10518 10515 10511 10508 10505 10501 10499 10496 10493 10490 10487 10484 10481 10477 10474 10472 10470 10467 10463 10458 10453 10450 10447 10444 10441 10439 10438 10435 10432 10429 10425 10422 10419 10417 10414 10411
10522 10521 10518 10515 10511 10508 10506 10503 10499 10496 10493 10489 10486 10484 10481 10478 10474 10471 10468 10465 10462 10460 10458 10456 10451 10446 10442 10440 10436 10432 10430 10428 10427 10424 10421 10417 10414 10410 10407 10405 10402 10399
10507 10506 10505 10501 10497 10494 10492 10489 10485 10483 10479 10475 10473 10471 10467 10464 10461 10458 10455 10453 10450 10447 10445 10443 10439 10434 10431 10429 10425 10421 10419 10417 10415 10412 10408 10405 10402 10398 10396 10394 10391 10388
10491 10491 10490 10487 10483 10480 10478 10475 10472 10469 10466 10462 10460 10458 10454 10451 10448 10445 10443 10440 10437 10433 10431 10429 10427 10423 10420 10418 10414 10410 10407 10405 10403 10399 10395 10392 10389 10386 10384 10382 10379 10375
10475 10474 10473 10471 10469 10466 10463 10461 10458 10455 10452 10449 10446 10444 10442 10438 10435 10433 10430 10427 10424 10421 10418 10416 10414 10410 10407 10405 10402 10398 10395 10391 10388 10385 10381 10378 10375 10373 10370 10368 10365 10361
10459 10458 10456 10455 10453 10451 10448 10446 10444 10441 10438 10435 10433 10431 10429 10426 10423 10421 10418 10415 10412 10409 10406 10404 10401 10398 10395 10392 10388 10384 10380 10376 10372 10370 10366 10362 10359 10358 10355 10352 10349 10346
10445 10443 10441 10439 10438 10436 10434 10432 10430 10428 10425 10422 10420 10417 10415 10413 10410 10408 10406 10402 10399 10396 10393 10390 10388 10385 10382 10378 10373 10368 10365 10361 10357 10354 10349 10346 10343 10341 10339 10336 10332 10329